Location: Blairvadach
(56.2780°N, 6.9720°W)
Time: 15:42:28
(UTC+01:00)

OTV 5 (USA 277) - Pass Details

Date: 27 April 2019
Orbit: 310 x 325 km, 54.5° (Epoch: 08 May)

Event Time Altitude Azimuth Distance (km) Brightness Sun altitude
Rises 22:51:56 0° 253° (WSW) 2,036 ? -12.8°
Reaches altitude 10° 22:53:55 10° 249° (WSW) 1,207 ? -13.0°
Maximum altitude 22:56:32 52° 171° (S) 397 ? -13.2°
Enters shadow 22:57:42 27° 106° (ESE) 645 ? -13.3°
